Regional Weather Roundup
Issued by NWS

Home | Current Version | Previous Version | Text Only | Print | Product List | Glossary On
Versions: 1 2 3 4 5 6 7 8 9 10 11 12 13 14 15 16 17 18 19 20 21 22 23 24 25 26 27 28 29 30 31 32 33 34 35 36 37 38 39 40 41 42 43 44 45 46 47 48
000
ASUS43 KMPX 130910
RWRMN
WEATHER ROUNDUP FOR MINNESOTA
NATIONAL WEATHER SERVICE TWIN CITIES/CHANHASSEN MN
400 AM CDT THU AUG 13 2020


NOTE: "FAIR" INDICATES FEW OR NO CLOUDS BELOW 12,000 FEET WITH NO
SIGNIFICANT WEATHER AND/OR OBSTRUCTIONS TO VISIBILITY. N/A MEANS
CURRENT SKY AND/OR WEATHER CONDITIONS ARE NOT AVAILABLE.

MNZ060>063-068>070-131000-
   Twin Cities Metro

CITY           SKY/WX    TMP DP  RH WIND       PRES   REMARKS
TWIN CITIES    MOCLDY    71  66  84 S8        30.01F
ST PAUL        CLEAR     68  64  87 SE3       30.01F
CRYSTAL        PTCLDY    65  63  93 CALM      30.00R
BLAINE         PTCLDY    66  66 100 SE3       30.01F
LAKEVILLE      CLEAR     72  61  68 S6        30.02S
EDEN PRAIRIE   PTCLDY    71  66  84 S9        30.00S
SOUTH ST PAUL  CLEAR     69  65  88 S5        30.01F
LAKE ELMO      FAIR      64  63  94 CALM      30.04S
$$
MNZ001>005-007-008-013>017-022>024-027-028-131000-
   Northwest Minnesota

CITY           SKY/WX    TMP DP  RH WIND       PRES   REMARKS
BEMIDJI        CLOUDY    61  59  94 E10       30.00F
HALLOCK        MOCLDY    64  63  94 SE10G16   29.91S
ROSEAU         PTCLDY    63 N/A N/A SE8       29.97S
THIEF RVR FALL CLOUDY    63  60  90 E16       29.94F
CROOKSTON      MOCLDY    66  63  88 SE9       29.90F
FOSSTON        CLEAR     63  57  82 SE9G17    29.94F
DETROIT LAKES    N/A     64  59  82 SE15      29.95F
MOORHEAD       PTCLDY   N/A N/A N/A SE8       29.88F
PARK RAPIDS    CLOUDY    63  58  83 SE8       29.99F
MAHNOMEN       PTSUNNY   65  61  87 SE15G22   29.92F
$$
MNZ006-009>011-018-025>026-131000-
   North Central Minnesota

CITY           SKY/WX    TMP DP  RH WIND       PRES   REMARKS
BAUDETTE       CLEAR     59  58  96 SE10      30.03S
FLAG ISLAND      N/A     66  61  82 SE15      29.99F
INTL FALLS     CLEAR     54  52  93 SE6       30.06S
WASKISH          N/A     57  55  94 E7        30.01F
BIG FORK       CLEAR     55  54  94 CALM      30.10F
GRAND RAPIDS   CLOUDY    61  58  90 SE7       30.07S
CRANE LAKE     CLEAR     52  52 100 CALM      30.11F
ORR              N/A     57  54  88 SE3       30.07S
COOK           CLEAR     55  54  94 CALM      30.09F
WALKER         CLOUDY    62  59  91 E5        30.01S
$$
MNZ012-019>021-037-131000-
   Northeast Minnesota

CITY           SKY/WX    TMP DP  RH WIND       PRES   REMARKS
DULUTH         CLOUDY    62  59  90 E13       30.09S
ELY            CLOUDY    55  54  94 CALM      30.13R
HIBBING        CLOUDY    59  56  89 E6        30.08S
EVELETH        CLOUDY    58  56  95 NE3       30.11S
DULUTH HARBOR  CLOUDY    64  59  82 NE9       30.09S
SILVER BAY       N/A     61  57  88 CALM      30.12S
GRAND MARAIS     N/A     59  55  87 N3        30.12R
G MARAIS ARPRT PTCLDY    57  52  82 CALM      30.16R
$$
MNZ029>031-032-039>041-046>048-054>057-064-131000-
   West Central Minnesota

CITY           SKY/WX    TMP DP  RH WIND       PRES   REMARKS
FERGUS FALLS   CLEAR     66  63  88 E10       29.91F
WHEATON        CLEAR     66  63  88 SE13      29.89F
MORRIS         MOCLDY    66  66 100 SE13      29.92F
ALEXANDRIA     CLOUDY    64  63  96 E12       29.97F
ELBOW LAKE     FAIR      65  65 100 SE12      29.91F
WADENA         CLOUDY    61  61 100 SE9       29.97F
GLENWOOD       PTCLDY    64  63  94 E8        29.96F
APPLETON       CLEAR     68  64  88 SE8       29.91S
BENSON         MOCLDY    68  66  94 SE8       29.94F
ORTONVILLE     CLOUDY    66  64  94 SE10      29.89F FOG
MADISON        CLEAR     72  70  94 SE7       29.91S
WILLMAR        MOCLDY    70  68  94 SE10      29.98F
$$
MNZ033>034-036-042>043-049>051-058-059-131000-
   Central Minnesota

CITY           SKY/WX    TMP DP  RH WIND       PRES   REMARKS
ST CLOUD       CLOUDY    62  60  93 E3        30.00S
SAUK CENTRE    FAIR      63  62  98 E6        29.98S
PAYNESVILLE    MOCLDY    66  66 100 SE7       29.98F
AITKIN         CLOUDY    61  57  88 E6        30.02F
PINE RIVER     CLOUDY    61  55  82 SE8       30.04F
BRAINERD       LGT RAIN  67  61  81 VRB3      30.01F
STAPLES        CLOUDY    63  59  88 E6        29.99F
LONG PRAIRIE   CLOUDY    61  61 100 E6        30.00S
LITTLE FALLS   CLOUDY    61  61 100 CALM      30.01S
CAMP RIPLEY    CLOUDY    62  61  95 E5        30.01F
LITCHFIELD     CLOUDY    72  72 100 SE8       29.99F
BUFFALO        PTCLDY    64  61  91 MISG      30.01F
MAPLE LAKE       N/A     66  65  97 E3        30.01F
HUTCHINSON     CLOUDY    69  69  99 SE8       30.00F
$$
MNZ037-044-045-052-053-131000-
   East Central Minnesota

CITY           SKY/WX    TMP DP  RH WIND       PRES   REMARKS
PRINCETON      MOCLDY    64  63  94 E3        30.01F
MORA           LGT RAIN  61  59  94 CALM      30.05F
CAMBRIDGE      MOCLDY    66  57  72 CALM      30.02F
RUSH CITY      CLOUDY    61  59  92 NE3       30.04S
MOOSE LAKE     CLOUDY    63  59  88 E3        30.04F
HINCKLEY       CLOUDY    63  63 100 E7        30.04F
CLOQUET        CLOUDY    63  57  82 E8        30.08S
MCGREGOR       MOCLDY    63  59  88 E7        30.04F
$$
MNZ071>073-080-081-089-090-097-098-131000-
   Southwest Minnesota

CITY           SKY/WX    TMP DP  RH WIND       PRES   REMARKS
MONTEVIDEO     CLOUDY    68  66  94 S8        29.93S FOG
GRANITE FALLS  PTCLDY    71  70  96 E8        29.94F
CANBY          CLEAR     70  69  96 E7        29.92S
MARSHALL       PTCLDY    71  69  93 S10       29.93F
REDWOOD FALLS  CLOUDY    71  69  93 SE14      29.95F FOG
OLIVIA         CLOUDY    70  68  94 SE9       29.96F FOG
PIPESTONE        N/A     72  70  94 S10       29.96S
WINDOM         PTCLDY    70  68  94 S6        29.98S
WORTHINGTON    CLOUDY    72  70  93 SE5       30.00R
JACKSON        CLEAR     70  68  94 SE7       30.00S
TRACY          PTCLDY    73  68  83 S9        29.95F
SLAYTON        PTCLDY    69  64  84 SE9       29.99S
$$
MNZ065>067-074>077-082>085-091>093-131000-
   South Central Minnesota

CITY           SKY/WX    TMP DP  RH WIND       PRES   REMARKS
MANKATO        CLEAR     70  70 100 SE12      30.01F
NEW ULM        CLOUDY    70  68  94 SE9       29.98F FOG
ST JAMES         N/A     72  70  94 SE8       29.98F
FAIRMONT       CLOUDY    72  71  97 SE9       30.01S
GLENCOE        CLEAR     67  65  96 SE3       29.99F
FARIBAULT      CLEAR     72  66  83 SE7       30.03S
OWATONNA       CLEAR     70  64  83 SE10      30.03S
ALBERT LEA     CLEAR     68  66  94 SE7       30.04S
$$
MNZ078>079-086>088-094>096-131000-
   Southeast Minnesota

CITY           SKY/WX    TMP DP  RH WIND       PRES   REMARKS
ROCHESTER      MOCLDY    68  62  81 SE8       30.07S
RED WING       PTCLDY    72  63  73 E6        30.02F
STANTON        CLEAR     70  64  80 S12       30.01F
DODGE CENTER   CLEAR     64  61  88 SE7       30.05F
WINONA         MOCLDY    68  63  83 SE5       30.06S
AUSTIN         CLEAR     68  64  88 S3        30.06S
PRESTON        CLOUDY    68  60  75 S8        30.08F
$$
ABBREVIATIONS USED IN REMARKS
   TC - TEMPERATURES IN CELSIUS
  WCI - WIND CHILL INDEX
   HX - HEAT INDEX
  VSB - VISIBILITY
$$



USA.gov is the U.S. government's official web portal to all federal, state and local government web resources and services.